W0KHZ Weather Reports


Display with metric or nautical units.
time (UTC)temp
F
wind
direction
speed
MPH
gust
MPH
rain 1hr
in
rain 24hr
in
rain mn
in
humidity
%
barometer
mb
20260503235027 71 303 3.0 8.0 0.00 0.00 0.00 33 1002.2
20260503234525 71 307 2.0 7.0 0.00 0.00 0.00 32 1002.2
20260503234043 71 292 2.0 6.0 0.00 0.00 0.00 32 1002.3
20260503233541 71 291 2.0 7.0 0.00 0.00 0.00 32 1002.3
20260503233019 71 311 4.0 11.0 0.00 0.00 0.00 32 1002.2
20260503232518 72 314 3.0 10.0 0.00 0.00 0.00 32 1002.2
20260503232016 72 312 3.0 13.0 0.00 0.00 0.00 32 1002.1
20260503231554 72 301 3.0 8.0 0.00 0.00 0.00 31 1002.0
20260503231031 72 324 3.0 10.0 0.00 0.00 0.00 31 1002.1
20260503230550 72 305 4.0 9.0 0.00 0.00 0.00 31 1002.2
20260503230027 72 299 4.0 10.0 0.00 0.00 0.00 30 1002.2
20260503225526 72 329 5.0 15.0 0.00 0.00 0.00 30 1002.0
20260503225024 72 313 4.0 10.0 0.00 0.00 0.00 30 1002.1
20260503224522 72 317 3.0 9.0 0.00 0.00 0.00 30 1002.0
20260503224021 72 324 4.0 10.0 0.00 0.00 0.00 30 1002.0
20260503223519 73 299 3.0 9.0 0.00 0.00 0.00 31 1001.9
20260503223037 73 310 3.0 10.0 0.00 0.00 0.00 31 1002.0
20260503222515 73 291 3.0 10.0 0.00 0.00 0.00 29 1002.0
20260503222033 73 295 5.0 15.0 0.00 0.00 0.00 30 1001.9
20260503221531 73 327 2.0 8.0 0.00 0.00 0.00 31 1001.9
20260503221029 73 334 2.0 13.0 0.00 0.00 0.00 30 1002.0
20260503220527 74 300 3.0 10.0 0.00 0.00 0.00 31 1002.0
20260503220025 74 298 2.0 7.0 0.00 0.00 0.00 31 1002.0
20260503215524 74 316 3.0 8.0 0.00 0.00 0.00 32 1002.1
20260503215102 74 300 4.0 10.0 0.00 0.00 0.00 32 1002.0
20260503214520 74 293 3.0 8.0 0.00 0.00 0.00 32 1002.0
20260503214018 74 307 4.0 9.0 0.00 0.00 0.00 31 1002.0
20260503213517 74 316 4.0 11.0 0.00 0.00 0.00 31 1002.0
20260503213035 74 301 4.0 10.0 0.00 0.00 0.00 31 1002.0
20260503212552 74 300 2.0 10.0 0.00 0.00 0.00 31 1002.1
20260503212030 74 315 3.0 13.0 0.00 0.00 0.00 31 1002.2
20260503211528 74 314 3.0 7.0 0.00 0.00 0.00 31 1002.2
20260503211046 74 329 2.0 8.0 0.00 0.00 0.00 32 1002.0
20260503210545 74 287 4.0 11.0 0.00 0.00 0.00 30 1002.2
20260503210023 74 306 3.0 9.0 0.00 0.00 0.00 30 1002.2
20260503205521 74 324 3.0 11.0 0.00 0.00 0.00 31 1002.2
20260503205020 74 331 3.0 7.0 0.00 0.00 0.00 32 1002.2
20260503204538 74 304 3.0 9.0 0.00 0.00 0.00 32 1002.3
20260503204016 74 297 4.0 15.0 0.00 0.00 0.00 31 1002.3
20260503203534 74 310 6.0 17.0 0.00 0.00 0.00 30 1002.2
20260503203051 74 305 4.0 14.0 0.00 0.00 0.00 33 1002.3
20260503202529 74 334 4.0 8.0 0.00 0.00 0.00 34 1002.4
20260503202027 74 331 5.0 9.0 0.00 0.00 0.00 35 1002.4
20260503201526 74 330 4.0 10.0 0.00 0.00 0.00 33 1002.4
20260503201024 74 297 7.0 18.0 0.00 0.00 0.00 34 1002.3
20260503200542 74 292 3.0 9.0 0.00 0.00 0.00 36 1002.3
20260503200021 74 305 2.0 7.0 0.00 0.00 0.00 36 1002.3
20260503195619 74 309 2.0 8.0 0.00 0.00 0.00 36 1002.5
20260503195037 74 313 3.0 8.0 0.00 0.00 0.00 35 1002.5
20260503194536 74 281 3.0 8.0 0.00 0.00 0.00 36 1002.4
20260503194033 74 271 2.0 10.0 0.00 0.00 0.00 36 1002.5
20260503193531 74 301 3.0 8.0 0.00 0.00 0.00 37 1002.4
20260503193109 73 273 2.0 6.0 0.00 0.00 0.00 37 1002.5
20260503192527 73 287 3.0 11.0 0.00 0.00 0.00 37 1002.6
20260503192025 73 270 5.0 13.0 0.00 0.00 0.00 38 1002.5
20260503191524 73 244 4.0 13.0 0.00 0.00 0.00 39 1002.6
20260503191022 73 233 2.0 8.0 0.00 0.00 0.00 39 1002.7
20260503190520 73 327 3.0 8.0 0.00 0.00 0.00 39 1002.7
20260503190019 73 230 3.0 8.0 0.00 0.00 0.00 41 1002.7
20260503185517 73 185 5.0 10.0 0.00 0.00 0.00 42 1002.8
20260503185015 72 170 2.0 6.0 0.00 0.00 0.00 42 1002.8
20260503184533 72 166 2.0 4.0 0.00 0.00 0.00 40 1002.9
20260503184050 72 238 3.0 7.0 0.00 0.00 0.00 41 1002.9
20260503183529 72 318 3.0 8.0 0.00 0.00 0.00 39 1003.0
20260503183107 71 310 3.0 7.0 0.00 0.00 0.00 41 1003.0
20260503182526 71 175 3.0 6.0 0.00 0.00 0.00 43 1003.1
20260503182024 71 185 3.0 9.0 0.00 0.00 0.00 42 1003.2
20260503181522 71 156 3.0 7.0 0.00 0.00 0.00 43 1003.2
20260503181020 70 211 2.0 6.0 0.00 0.00 0.00 43 1003.3
20260503180518 70 267 1.0 6.0 0.00 0.00 0.00 42 1003.3
20260503180017 70 167 4.0 10.0 0.00 0.00 0.00 44 1003.5
20260503175535 69 163 3.0 7.0 0.00 0.00 0.00 43 1003.5
20260503175032 69 177 3.0 6.0 0.00 0.00 0.00 43 1003.7
20260503174530 68 206 2.0 3.0 0.00 0.00 0.00 43 1003.5
20260503174028 69 284 2.0 6.0 0.00 0.00 0.00 41 1003.8
20260503173527 68 175 2.0 6.0 0.00 0.00 0.00 43 1003.6
20260503173025 68 165 3.0 8.0 0.00 0.00 0.00 44 1003.7
20260503172523 68 159 4.0 7.0 0.00 0.00 0.00 44 1003.6
20260503172021 68 159 4.0 8.0 0.00 0.00 0.00 44 1003.6
20260503171520 68 208 2.0 6.0 0.00 0.00 0.00 44 1003.7
20260503171018 67 158 2.0 6.0 0.00 0.00 0.00 43 1003.8
20260503170516 67 171 2.0 7.0 0.00 0.00 0.00 44 1004.0
20260503150530 63 154 5.0 10.0 0.00 0.00 0.00 47 1004.6
20260503131047 57 147 4.0 11.0 0.00 0.00 0.00 57 1005.3
20260503130545 56 144 4.0 9.0 0.00 0.00 0.00 58 1005.2
20260503110520 54 139 4.0 7.0 0.00 0.00 0.00 54 1005.6
20260503081517 53 85 0.0 1.0 0.00 0.00 0.00 47 1007.8
20260503081035 53 85 0.0 1.0 0.00 0.00 0.00 47 1007.9
20260503080553 53 89 0.0 3.0 0.00 0.00 0.00 48 1007.8
20260503072518 54 134 2.0 6.0 0.00 0.00 0.00 46 1008.2
20260503072016 54 203 1.0 6.0 0.00 0.00 0.00 46 1008.2
20260503071535 54 174 1.0 4.0 0.00 0.00 0.00 46 1008.4
20260503071032 54 119 1.0 4.0 0.00 0.00 0.00 46 1008.3
20260503070530 54 336 1.0 2.0 0.00 0.00 0.00 46 1008.5
20260503055023 53 81 2.0 3.0 0.00 0.00 0.00 48 1009.1
20260503054521 53 116 2.0 4.0 0.00 0.00 0.00 48 1009.2
20260503054019 53 114 2.0 3.0 0.00 0.00 0.00 48 1009.2
20260503053517 53 141 1.0 3.0 0.00 0.00 0.00 48 1009.2
20260503053036 53 123 2.0 7.0 0.00 0.00 0.00 49 1009.2
20260503052554 53 94 1.0 3.0 0.00 0.00 0.00 49 1009.2
20260503052031 53 87 0.0 3.0 0.00 0.00 0.00 49 1009.2
20260503051549 53 62 1.0 4.0 0.00 0.00 0.00 50 1009.3
20260503051028 53 59 0.0 2.0 0.00 0.00 0.00 49 1009.3
20260503050526 53 65 1.0 2.0 0.00 0.00 0.00 49 1009.3
20260503050024 53 83 2.0 3.0 0.00 0.00 0.00 49 1009.3
20260503045522 53 35 1.0 2.0 0.00 0.00 0.00 49 1009.3
20260503045021 53 0.0 0.0 0.00 0.00 0.00 49 1009.3
20260503044519 53 81 2.0 3.0 0.00 0.00 0.00 50 1009.3
20260503044017 53 96 1.0 3.0 0.00 0.00 0.00 50 1009.4
20260503043515 53 76 1.0 3.0 0.00 0.00 0.00 50 1009.5
20260503043053 52 105 1.0 3.0 0.00 0.00 0.00 52 1009.6
20260503042530 51 245 0.0 2.0 0.00 0.00 0.00 55 1009.5
20260503042029 51 218 1.0 3.0 0.00 0.00 0.00 55 1009.6
20260503041527 51 218 0.0 3.0 0.00 0.00 0.00 56 1009.6
20260503041026 50 218 1.0 3.0 0.00 0.00 0.00 57 1009.7
20260503040524 50 218 0.0 2.0 0.00 0.00 0.00 58 1009.6
20260503040022 51 0.0 0.0 0.00 0.00 0.00 58 1009.6
20260503035520 51 0.0 0.0 0.00 0.00 0.00 57 1009.7
20260503035019 51 0.0 0.0 0.00 0.00 0.00 55 1009.7
20260503034517 51 0.0 0.0 0.00 0.00 0.00 58 1009.9
20260503034035 51 0.0 0.0 0.00 0.00 0.00 58 1010.0
20260503033533 51 0.0 0.0 0.00 0.00 0.00 58 1010.0
20260503033050 51 0.0 0.0 0.00 0.00 0.00 57 1009.9
20260503032529 51 0.0 0.0 0.00 0.00 0.00 57 1010.0
20260503032047 51 0.0 0.0 0.00 0.00 0.00 56 1010.0
20260503031525 51 0.0 0.0 0.00 0.00 0.00 55 1010.3
20260503031024 51 0.0 0.0 0.00 0.00 0.00 56 1010.3
20260503030522 51 0.0 0.0 0.00 0.00 0.00 57 1010.3
20260503030020 52 0.0 0.0 0.00 0.00 0.00 55 1010.4
20260503025518 52 0.0 0.0 0.00 0.00 0.00 54 1010.3
20260503025016 52 0.0 0.0 0.00 0.00 0.00 55 1010.4
20260503024535 52 0.0 0.0 0.00 0.00 0.00 53 1010.4
20260503024032 52 0.0 0.0 0.00 0.00 0.00 53 1010.4
20260503023530 52 0.0 0.0 0.00 0.00 0.00 53 1010.5
20260503023028 52 0.0 0.0 0.00 0.00 0.00 53 1010.3
20260503022526 52 0.0 0.0 0.00 0.00 0.00 54 1010.5
20260503022045 53 0.0 0.0 0.00 0.00 0.00 53 1010.5
20260503021523 53 0.0 0.0 0.00 0.00 0.00 52 1010.5
20260503021022 53 0.0 0.0 0.00 0.00 0.00 53 1010.5
20260503020540 54 0.0 0.0 0.00 0.00 0.00 52 1010.5
20260503020018 54 0.0 0.0 0.00 0.00 0.00 51 1010.4
20260503015516 54 0.0 0.0 0.00 0.00 0.00 50 1010.4
20260503015034 54 0.0 0.0 0.00 0.00 0.00 50 1010.4
20260503014531 55 0.0 0.0 0.00 0.00 0.00 49 1010.4
20260503014029 55 0.0 0.0 0.00 0.00 0.00 47 1010.4
20260503013527 56 0.0 0.0 0.00 0.00 0.00 46 1010.4
20260503013025 56 0.0 0.0 0.00 0.00 0.00 46 1010.3
20260503012523 57 0.0 0.0 0.00 0.00 0.00 44 1010.5
20260503012022 57 0.0 0.0 0.00 0.00 0.00 45 1010.4
20260503011520 58 0.0 0.0 0.00 0.00 0.00 44 1010.5
20260503011018 59 0.0 0.0 0.00 0.00 0.00 40 1010.4
20260503010517 60 0.0 0.0 0.00 0.00 0.00 38 1010.4
20260503010035 60 218 0.0 2.0 0.00 0.00 0.00 37 1010.4
20260503005532 60 0.0 0.0 0.00 0.00 0.00 37 1010.4
20260503005030 60 0.0 0.0 0.00 0.00 0.00 37 1010.5
20260503004528 60 0.0 0.0 0.00 0.00 0.00 36 1010.4
20260503004026 60 0.0 0.0 0.00 0.00 0.00 36 1010.5
20260503003524 60 219 0.0 2.0 0.00 0.00 0.00 35 1010.5
20260503003023 61 219 0.0 1.0 0.00 0.00 0.00 35 1010.6
20260503002521 61 219 0.0 1.0 0.00 0.00 0.00 35 1010.5
20260503002039 61 219 1.0 2.0 0.00 0.00 0.00 35 1010.6
20260503001517 61 220 1.0 3.0 0.00 0.00 0.00 35 1010.6
20260503001035 61 235 1.0 3.0 0.00 0.00 0.00 34 1010.6
20260503000532 61 260 1.0 3.0 0.00 0.00 0.00 34 1010.8
20260503000030 62 229 2.0 3.0 0.00 0.00 0.00 34 1010.8
20260502235528 62 261 1.0 6.0 0.00 0.00 0.00 34 1010.9